Location: Atlantic Beach
(40.5890°N, 73.7290°W)
Time: 23:07:17
(UTC+00:00)

Hubble Space Telescope - Pass Details

Date: 23 January 2021
Orbit: 536 x 539 km, 28.5° (Epoch: 25 February)

Event Time Altitude Azimuth Distance (km) Brightness Sun altitude
Rises 23:52:58 0° 245° (WSW) 2,674 5.7 -20.9°
Reaches altitude 10° 23:56:19 10° 217° (SW) 1,783 4.0 -21.5°
Maximum altitude 23:58:12 13° 190° (S) 1,604 3.4 -21.9°
Enters shadow 23:59:38 11° 168° (SSE) 1,706 3.3 -22.2°
